"Pseudo-MPEC" for C03CZA1

Created 2019 Feb 20 14:18:03 UT using Find_Orb

Click here for an explanation of pseudo-MPECs

 
 Astrometry: 
     C03CZA1  C2019 02 09.36895 11 20 53.77 +02 42 49.8    ~29C3 18.7 GVNEOCP703
     C03CZA1  C2019 02 09.37419 11 20 52.06 +02 40 19.0    ~29C3 18.5 GVNEOCP703
     C03CZA1  C2019 02 09.37943 11 20 50.59 +02 37 49.0    ~29C3 19.1 GVNEOCP703
     C03CZA1  C2019 02 09.38468 11 20 48.93 +02 35 14.2    ~29C3 18.7 GVNEOCP703
     C03CZA1  C2019 02 09.48379 11 20 11.99 +01 35 48.3    ~29NX 18.1 GVNEOCPI52
     C03CZA1  C2019 02 09.48439 11 20 11.73 +01 35 22.2    ~29NX 18.1 GVNEOCPI52
     C03CZA1  C2019 02 09.48470 11 20 11.61 +01 35 09.1    ~29NX 18.1 GVNEOCPI52

Station data:
(703) Catalina Sky Survey  (N32.417006 W110.732640)  US/Arizona.  Observers
   B. M. Africano, E. J. Christensen, G. A. Farneth, D. C. Fuls, A. R. Gibbs,
   A. D. Grauer, H. Groeller, J. A. Johnson, R. A. Kowalski, S. M. Larson, G.
   J. Leonard, R. L. Seaman, F. C. Shelly. 0.68 m Schmidt + 10K CCD.
(I52) Steward Observatory, Mt. Lemmon Station  (N32.442547 W110.788920)
   US/Arizona.  Observers B. M. Africano, E. J. Christensen, G. A. Farneth,
   D. C. Fuls, A. R. Gibbs, A. D. Grauer, H. Groeller, J. A. Johnson, R. A.
   Kowalski, S. M. Larson, G. J. Leonard, R. L. Seaman, F. C. Shelly. 1.0-m
   reflector + CCD.

Orbital elements:  C03CZA1
   Perihelion 2019 Mar 4.615996 TT = 14:47:02 (JD 2458547.115996)
Epoch 2019 Feb  9.0 TT = JDT 2458523.5   Earth MOID: 0.0016   Ju: 0.2244
q   0.00668912                      Ve: 0.0553   Me: 0.0748   Ma: 0.0120
H   26.0  G 0.15   Peri.  347.62819
                   Node   320.66314
e   1.0102017      Incl.   82.46446
From 7 observations 2019 Feb. 9 (2.8 hr); mean residual 0".72
Residuals in arcseconds: 
190209 703  .55+  .09+    190209 703  .24+  .25+    190209 I52  .03+  .42-    
190209 703  1.5-  1.6-    190209 I52  .16-  .81-    
190209 703  .53+  .18+    190209 I52  .18-  .82-    

Ephemerides (geocentric):
Date (UTC) HH   RA              Dec         delta   r     elong  mag
---- -- -- --  -------------   -----------  ------ ------ -----  ---
2019 02 20 14  23 20 28.107   -07 41 17.07  .39601 .62030  16.8 31??
2019 02 20 15  23 20 26.954   -07 41 17.67  .39761 .61874  16.8 31??
2019 02 20 16  23 20 25.795   -07 41 18.31  .39921 .61718  16.7 31??
2019 02 20 17  23 20 24.629   -07 41 19.01  .40081 .61563  16.7 31??
2019 02 20 18  23 20 23.456   -07 41 19.75  .40241 .61406  16.6 31??
2019 02 20 19  23 20 22.276   -07 41 20.54  .40402 .61250  16.6 32??
2019 02 20 20  23 20 21.090   -07 41 21.37  .40562 .61094  16.5 32??
2019 02 20 21  23 20 19.897   -07 41 22.25  .40722 .60937  16.5 32??
2019 02 20 22  23 20 18.697   -07 41 23.18  .40883 .60781  16.4 32??
2019 02 20 23  23 20 17.491   -07 41 24.15  .41043 .60624  16.4 32??
2019 02 21 00  23 20 16.277   -07 41 25.17  .41204 .60467  16.4 32??
2019 02 21 01  23 20 15.056   -07 41 26.23  .41364 .60310  16.3 32??
2019 02 21 02  23 20 13.829   -07 41 27.34  .41525 .60153  16.3 32??
2019 02 21 03  23 20 12.595   -07 41 28.49  .41686 .59996  16.2 32??
2019 02 21 04  23 20 11.353   -07 41 29.69  .41846 .59839  16.2 32??
2019 02 21 05  23 20 10.105   -07 41 30.93  .42007 .59681  16.1 32??
2019 02 21 06  23 20 08.849   -07 41 32.21  .42168 .59523  16.1 32??
2019 02 21 07  23 20 07.586   -07 41 33.54  .42329 .59365  16.0 32??
2019 02 21 08  23 20 06.316   -07 41 34.91  .42491 .59207  16.0 32??
2019 02 21 09  23 20 05.039   -07 41 36.32  .42652 .59049  15.9 32??
2019 02 21 10  23 20 03.755   -07 41 37.78  .42813 .58891  15.9 32??
2019 02 21 11  23 20 02.463   -07 41 39.27  .42975 .58733  15.8 32??
2019 02 21 12  23 20 01.164   -07 41 40.81  .43136 .58574  15.8 32??
2019 02 21 13  23 19 59.858   -07 41 42.40  .43298 .58415  15.8 32??
2019 02 21 14  23 19 58.544   -07 41 44.02  .43459 .58257  15.7 32??
2019 02 21 15  23 19 57.223   -07 41 45.69  .43621 .58098  15.7 32??
2019 02 21 16  23 19 55.894   -07 41 47.39  .43783 .57938  15.6 32??
2019 02 21 17  23 19 54.558   -07 41 49.14  .43945 .57779  15.6 32??
2019 02 21 18  23 19 53.214   -07 41 50.93  .44107 .57620  15.5 32??
2019 02 21 19  23 19 51.862   -07 41 52.76  .44269 .57460  15.5 32??
2019 02 21 20  23 19 50.503   -07 41 54.64  .44431 .57300  15.4 32??
2019 02 21 21  23 19 49.136   -07 41 56.55  .44593 .57140  15.4 32??
2019 02 21 22  23 19 47.762   -07 41 58.50  .44756 .56980  15.3 32??
2019 02 21 23  23 19 46.379   -07 42 00.49  .44918 .56820  15.3 32??
2019 02 22 00  23 19 44.989   -07 42 02.52  .45081 .56660  15.2 32??
2019 02 22 01  23 19 43.591   -07 42 04.60  .45243 .56499  15.2 32??
2019 02 22 02  23 19 42.185   -07 42 06.71  .45406 .56339  15.1 32??
2019 02 22 03  23 19 40.771   -07 42 08.86  .45569 .56178  15.1 32??
2019 02 22 04  23 19 39.349   -07 42 11.05  .45732 .56017  15.1 32??
2019 02 22 05  23 19 37.919   -07 42 13.28  .45895 .55856  15.0 32??
2019 02 22 06  23 19 36.481   -07 42 15.54  .46058 .55694  15.0 32??
2019 02 22 07  23 19 35.034   -07 42 17.85  .46221 .55533  14.9 32??
2019 02 22 08  23 19 33.580   -07 42 20.20  .46384 .55371  14.9 32??
2019 02 22 09  23 19 32.117   -07 42 22.58  .46548 .55209  14.8 32??
2019 02 22 10  23 19 30.646   -07 42 25.00  .46711 .55047  14.8 32??
2019 02 22 11  23 19 29.167   -07 42 27.46  .46875 .54885  14.7 32??
2019 02 22 12  23 19 27.679   -07 42 29.96  .47038 .54723  14.7 32??
2019 02 22 13  23 19 26.182   -07 42 32.49  .47202 .54560  14.6 32??